period_start,C,m1,H,J0,J1,J2,J3,J4,J5,JA,JB,JC,JD,JJ,JK,JN,#
2016-12-28 00:00:58,0.28,4.72,0.00,17.92,21.99,25.76,14.80,49.37,1018.08,2045.99,2087.48,2098.80,2381.97,599.97,607.28,17.38,0000 0000 0000 0000 000000
2016-12-28 00:06:00,0.29,4.73,0.00,17.91,21.99,25.75,14.85,49.33,1018.08,2045.98,2084.32,2096.34,2379.04,599.82,607.10,17.43,0000 0000 0000 0000 000000
2016-12-28 00:11:01,0.28,4.75,0.00,17.92,22.01,25.76,14.86,49.34,1018.08,2045.97,2081.53,2094.14,2376.39,599.88,607.18,17.48,0000 0000 0000 0000 000000
2016-12-28 00:16:02,0.36,4.76,0.00,17.93,22.02,25.79,14.86,49.48,1018.08,2045.94,2077.75,2091.42,2373.34,599.60,606.94,17.53,0000 0000 0000 0000 000000
2016-12-28 00:21:03,0.45,4.78,0.00,17.94,22.02,25.82,14.87,49.56,1018.08,2045.92,2072.97,2088.11,2369.80,600.30,607.58,17.58,0000 0000 0000 0000 000000
2016-12-28 00:26:04,0.44,4.81,0.00,17.96,22.02,25.79,14.92,50.06,1018.08,2045.81,2067.67,2084.38,2365.78,600.21,607.28,17.63,0000 0000 0000 0000 000000
2016-12-28 00:31:06,0.40,4.83,0.00,17.98,22.04,25.77,14.91,49.88,1018.09,2045.56,2062.82,2080.91,2361.87,600.13,607.30,17.68,0000 0000 0000 0000 000000
2016-12-28 00:36:07,0.53,4.85,0.00,17.98,22.04,25.76,14.89,49.82,1018.08,2045.45,2057.24,2076.94,2357.49,600.06,607.22,17.73,0000 0000 0000 0000 000000
2016-12-28 00:41:09,0.54,4.88,0.00,17.98,22.04,25.77,14.88,49.89,1018.08,2045.33,2051.05,2072.58,2352.57,599.94,607.02,17.78,0000 0000 0000 0000 000000
2016-12-28 00:46:10,0.59,4.91,0.00,17.98,22.05,25.83,14.82,49.92,1018.08,2045.20,2045.11,2068.12,2347.47,599.60,606.81,17.83,0000 0000 0000 0000 000000
2016-12-28 00:51:11,0.55,4.94,0.00,18.00,22.07,25.82,14.82,49.81,1018.08,2045.11,2038.67,2063.59,2342.36,600.24,607.36,17.88,0000 0000 0000 0000 000000
2016-12-28 00:56:12,0.49,4.96,0.00,17.99,22.07,25.80,14.88,49.74,1018.08,2045.06,2033.26,2059.82,2338.07,600.15,607.28,17.93,0000 0000 0000 0000 000000
2016-12-28 01:01:14,0.62,4.99,0.87,18.00,22.08,25.80,14.81,49.61,1018.08,2045.03,2026.81,2055.32,2333.04,600.17,607.39,17.98,0000 0000 0000 0000 000000
2016-12-28 01:06:15,0.80,5.03,1.00,18.01,22.09,25.85,14.83,49.66,1018.09,2045.02,2018.49,2049.72,2326.77,600.14,607.29,18.04,0000 0000 0000 0000 000000
2016-12-28 01:11:16,0.83,5.07,1.00,18.03,22.09,25.83,14.75,49.60,1018.11,2045.01,2009.11,2043.63,2319.71,599.59,606.68,18.09,0000 0000 0000 0000 000000
2016-12-28 01:16:17,0.65,5.11,1.00,18.03,22.10,25.83,14.82,49.62,1018.13,2045.01,2001.89,2038.68,2314.11,599.75,606.88,18.14,0000 0000 0000 0000 000000
2016-12-28 01:21:19,0.77,5.14,1.00,18.04,22.12,25.87,14.81,49.68,1018.19,2045.00,1994.11,2033.34,2308.11,599.75,606.95,18.19,0000 0000 0000 0000 000000
2016-12-28 01:26:20,0.85,5.18,1.00,18.05,22.12,25.89,14.88,49.53,1018.11,2045.00,1985.10,2027.20,2301.36,600.14,607.13,18.24,0000 0000 0000 0000 000000
2016-12-28 01:31:21,0.76,5.22,1.00,18.06,22.13,25.89,14.84,49.61,1018.10,2045.00,1976.68,2021.32,2294.83,599.70,606.75,18.29,0000 0000 0000 0000 000000
2016-12-28 01:36:23,0.74,5.26,1.00,18.07,22.14,25.90,14.90,49.66,1018.10,2045.00,1969.01,2016.06,2289.07,599.99,607.04,18.34,0000 0000 0000 0000 000000
2016-12-28 01:41:24,0.79,5.30,1.00,18.08,22.14,25.91,14.93,49.73,1018.09,2045.00,1960.94,2010.42,2282.86,600.15,607.15,18.39,0000 0000 0000 0000 000000
2016-12-28 01:46:25,0.71,5.34,1.00,18.11,22.15,25.92,14.85,49.63,1018.14,2044.99,1953.34,2005.07,2276.80,599.78,606.84,18.44,0000 0000 0000 0000 000000
2016-12-28 01:51:27,0.55,5.37,1.00,18.10,22.16,25.92,14.87,49.67,1018.36,2044.99,1947.30,2000.90,2272.08,599.80,606.92,18.49,0000 0000 0000 0000 000000
2016-12-28 01:56:28,0.46,5.39,1.00,18.10,22.17,25.92,14.93,49.77,1018.31,2044.98,1942.59,1997.57,2268.34,599.76,606.85,18.54,0000 0000 0000 0000 000000
2016-12-28 02:01:29,0.48,5.42,1.00,18.11,22.17,25.94,14.84,49.58,1018.12,2044.98,1937.78,1994.14,2264.44,599.97,606.80,18.59,0000 0000 0000 0000 000000
2016-12-28 02:06:31,0.49,5.44,1.00,18.11,22.18,25.96,14.86,49.58,1018.11,2044.98,1932.83,1990.65,2260.45,600.11,607.20,18.64,0000 0000 0000 0000 000000
2016-12-28 02:11:32,0.46,5.47,1.00,18.12,22.19,25.97,14.85,49.72,1018.10,2044.93,1927.90,1987.23,2256.66,599.98,606.85,18.69,0000 0000 0000 0000 000000
2016-12-28 02:16:34,0.46,5.49,1.00,18.13,22.20,25.97,14.82,49.73,1018.09,2044.86,1923.22,1984.02,2252.99,599.90,606.59,18.74,0000 0000 0000 0000 000000
2016-12-28 02:21:35,0.45,5.51,1.00,18.14,22.21,25.98,14.88,49.61,1018.08,2044.68,1918.42,1980.74,2249.19,600.21,606.98,18.79,0000 0000 0000 0000 000000
2016-12-28 02:26:36,0.44,5.53,1.00,18.15,22.22,25.98,14.83,49.72,1018.08,2044.46,1913.77,1977.36,2245.35,599.81,606.64,18.84,0000 0000 0000 0000 000000
2016-12-28 02:31:38,0.43,5.56,0.07,18.16,22.22,25.99,14.81,49.81,1018.09,2044.19,1909.21,1974.17,2241.67,599.84,606.66,18.89,0000 0000 0000 0000 000000
2016-12-28 02:36:39,0.39,5.58,0.00,18.16,22.24,26.00,14.82,49.68,1018.10,2044.06,1904.96,1971.18,2238.44,599.74,606.49,18.94,0000 0000 0000 0000 000000
2016-12-28 02:41:40,0.42,5.60,0.00,18.16,22.24,26.00,14.83,49.73,1018.08,2044.11,1900.82,1968.29,2235.24,600.06,606.89,18.99,0000 0000 0000 0000 000000
2016-12-28 02:46:41,0.45,5.62,0.00,18.17,22.25,25.99,14.90,49.63,1018.11,2044.04,1896.57,1965.18,2231.66,600.43,607.38,19.04,0000 0000 0000 0000 000000
2016-12-28 02:51:43,0.45,5.64,0.00,18.20,22.27,26.00,14.93,49.70,1018.22,2044.04,1892.14,1962.04,2228.12,600.26,607.02,19.09,0000 0000 0000 0000 000000
2016-12-28 02:56:44,0.46,5.67,0.00,18.18,22.27,26.03,14.86,49.59,1018.15,2044.01,1887.63,1958.85,2224.45,600.56,607.45,19.14,0000 0000 0000 0000 000000
2016-12-28 03:01:45,0.45,5.69,0.00,18.09,22.27,26.02,14.84,49.67,1018.15,2044.00,1882.99,1955.67,2221.01,600.59,607.61,19.19,0000 0000 0000 0000 000000
2016-12-28 03:06:47,0.41,5.71,0.00,17.82,22.27,26.06,14.91,49.94,1018.12,2044.00,1878.83,1952.81,2217.75,599.79,607.36,19.24,0000 0000 0000 0000 000000
2016-12-28 03:11:48,0.31,5.73,0.00,17.85,22.27,26.01,14.94,49.85,1018.23,2044.00,1875.72,1950.54,2215.22,600.17,607.82,19.29,0000 0000 0000 0000 000000
2016-12-28 03:16:49,0.35,5.75,0.00,17.88,22.27,25.91,14.84,49.80,1018.18,2044.01,1872.48,1948.20,2212.55,599.73,607.36,19.34,0000 0000 0000 0000 000000
2016-12-28 03:21:51,0.38,5.77,0.00,17.91,22.27,25.82,14.91,49.79,1018.09,2044.00,1869.01,1945.61,2209.59,600.19,607.53,19.39,0000 0000 0000 0000 000000
2016-12-28 03:26:52,0.41,5.78,0.00,17.92,22.28,25.87,14.83,49.88,1018.08,2044.00,1865.14,1942.86,2206.41,599.97,607.41,19.44,0000 0000 0000 0000 000000
2016-12-28 03:31:53,0.37,5.80,0.00,17.95,22.28,25.85,14.90,49.85,1018.08,2044.00,1861.52,1940.29,2203.47,600.19,607.29,19.49,0000 0000 0000 0000 000000
2016-12-28 03:36:54,0.39,5.82,0.00,17.97,22.27,25.84,14.87,49.95,1018.08,2044.00,1857.98,1937.69,2200.50,600.09,607.21,19.54,0000 0000 0000 0000 000000
2016-12-28 03:41:56,0.41,5.84,0.00,18.00,22.27,25.86,14.88,49.75,1018.09,2044.00,1854.30,1934.84,2197.26,599.91,607.11,19.59,0000 0000 0000 0000 000000
2016-12-28 03:46:57,0.38,5.86,0.00,18.02,22.27,25.84,14.85,49.89,1018.09,2044.00,1850.61,1932.16,2194.25,600.19,607.25,19.64,0000 0000 0000 0000 000000
2016-12-28 03:51:58,0.41,5.88,0.00,18.03,22.27,25.82,14.83,49.81,1018.08,2044.00,1846.87,1929.40,2191.11,599.75,606.94,19.69,0000 0000 0000 0000 000000
2016-12-28 03:57:00,0.44,5.91,0.00,18.04,22.27,25.82,14.77,49.80,1018.08,2044.00,1843.03,1926.51,2187.84,599.67,606.86,19.74,0000 0000 0000 0000 000000
2016-12-28 04:02:01,0.45,5.93,0.00,18.06,22.27,25.89,14.85,49.78,1018.09,2043.99,1838.83,1923.33,2184.28,599.93,606.92,19.79,0000 0000 0000 0000 000000
2016-12-28 04:07:02,0.45,5.95,0.00,18.08,22.27,25.89,14.91,49.91,1018.08,2043.99,1834.74,1920.28,2180.88,599.88,606.86,19.84,0000 0000 0000 0000 000000
2016-12-28 04:12:03,0.42,5.97,0.00,18.08,22.27,25.91,14.88,49.83,1018.08,2043.99,1830.89,1917.47,2177.58,600.36,607.35,19.89,0000 0000 0000 0000 000000
2016-12-28 04:17:04,0.41,5.99,0.00,18.09,22.27,25.91,14.90,49.73,1018.02,2043.99,1827.08,1914.62,2174.46,600.20,606.99,19.94,0000 0000 0000 0000 000000
2016-12-28 04:22:06,0.39,6.01,0.00,18.11,22.27,25.96,14.90,49.89,1018.08,2043.99,1823.42,1911.99,2171.54,600.09,607.03,19.99,0000 0000 0000 0000 000000
2016-12-28 04:27:07,0.37,6.03,0.00,18.14,22.27,25.98,14.87,49.95,1018.08,2043.99,1820.08,1909.43,2168.70,600.05,606.90,20.04,0000 0000 0000 0000 000000
2016-12-28 04:37:30,-3333.30,0.00,0.00,17.65,22.42,25.24,13.04,42.61,1017.76,1844.83,3322.49,2850.53,3235.18,526.97,533.68,0.00,0000 0000 0000 0000 000000
2016-12-28 04:42:31,0.01,0.01,0.00,17.74,22.34,25.55,14.86,47.41,1017.84,2047.84,3677.23,3157.97,3584.88,600.01,607.56,0.05,0000 0000 0000 0000 000000
2016-12-28 04:47:32,0.07,0.02,0.00,17.79,22.30,25.63,14.76,47.36,1017.67,2047.22,3667.48,3151.62,3578.02,599.72,607.02,0.10,0000 0000 0000 0000 000000
2016-12-28 04:52:33,0.16,0.04,0.00,17.81,22.26,25.66,14.89,47.31,1017.66,2047.21,3658.44,3145.73,3571.42,599.91,607.23,0.16,0000 0000 0000 0000 000000
2016-12-28 04:57:34,0.26,0.06,0.00,17.84,22.23,25.62,14.85,47.22,1017.87,2047.44,3649.58,3140.01,3565.00,599.91,607.37,0.21,0000 0000 0000 0000 000000
2016-12-28 05:02:36,0.34,0.08,0.00,17.87,22.20,25.59,14.77,47.22,1017.84,2047.64,3641.15,3134.45,3558.57,599.77,607.16,0.26,0000 0000 0000 0000 000000
2016-12-28 05:07:37,0.35,0.10,0.00,17.90,22.18,25.53,14.78,47.08,1017.77,2047.83,3633.32,3129.34,3552.76,600.00,607.16,0.31,0000 0000 0000 0000 000000
2016-12-28 05:12:38,0.34,0.12,0.00,17.93,22.17,25.52,14.79,47.22,1017.79,2047.93,3625.47,3124.06,3546.81,600.17,607.23,0.36,0000 0000 0000 0000 000000
2016-12-28 05:17:39,0.32,0.13,0.00,17.94,22.15,25.56,14.72,47.24,1017.86,2047.96,3617.81,3119.04,3541.23,600.01,607.11,0.41,0000 0000 0000 0000 000000
2016-12-28 05:22:41,0.32,0.15,0.00,17.99,22.14,25.59,14.77,47.12,1017.76,2047.97,3610.34,3114.05,3535.64,600.02,607.00,0.46,0000 0000 0000 0000 000000
2016-12-28 05:27:42,0.31,0.16,0.00,18.01,22.13,25.72,14.84,47.33,1017.65,2047.99,3603.02,3109.18,3530.18,599.93,606.70,0.51,0000 0000 0000 0000 000000
2016-12-28 05:32:43,0.32,0.18,0.00,18.03,22.12,25.78,14.89,47.28,1017.66,2047.99,3595.74,3104.27,3524.65,600.29,607.12,0.56,0000 0000 0000 0000 000000
2016-12-28 05:37:45,0.31,0.20,0.00,18.04,22.12,25.80,14.78,47.26,1017.67,2047.99,3588.50,3099.42,3519.21,600.13,606.87,0.61,0000 0000 0000 0000 000000
2016-12-28 05:42:46,0.31,0.21,0.00,18.06,22.12,25.87,14.78,47.20,1017.61,2047.99,3581.38,3094.58,3514.00,600.07,606.82,0.66,0000 0000 0000 0000 000000
2016-12-28 05:47:47,0.31,0.23,0.00,18.08,22.12,25.87,14.78,47.33,1017.61,2047.99,3574.18,3089.75,3508.60,600.07,606.72,0.71,0000 0000 0000 0000 000000
2016-12-28 05:52:49,0.32,0.25,0.00,18.10,22.13,25.88,14.91,47.21,1017.61,2047.99,3566.94,3084.88,3503.12,600.34,606.84,0.76,0000 0000 0000 0000 000000
2016-12-28 05:57:50,0.34,0.26,0.00,18.12,22.14,25.92,14.77,47.28,1017.59,2047.99,3559.20,3079.71,3497.27,599.71,606.32,0.81,0000 0000 0000 0000 000000
2016-12-28 06:02:51,0.37,0.28,0.00,18.12,22.14,25.91,14.81,47.27,1017.59,2047.99,3550.80,3074.11,3490.90,600.22,606.80,0.86,0000 0000 0000 0000 000000
2016-12-28 06:07:53,0.37,0.30,0.00,18.14,22.15,25.93,14.83,47.26,1017.59,2047.97,3542.18,3068.45,3484.23,599.82,606.38,0.91,0000 0000 0000 0000 000000
2016-12-28 06:12:54,0.38,0.32,0.00,18.14,22.17,25.97,14.80,47.25,1017.61,2047.98,3533.24,3062.62,3477.72,600.06,606.64,0.96,0000 0000 0000 0000 000000
2016-12-28 06:17:55,0.37,0.34,0.00,18.15,22.17,25.98,14.80,47.20,1017.61,2047.99,3524.69,3056.98,3471.42,599.96,606.52,1.01,0000 0000 0000 0000 000000
2016-12-28 06:22:56,0.35,0.36,0.00,18.16,22.19,26.01,14.84,47.48,1017.61,2047.95,3516.67,3051.51,3465.31,599.91,606.43,1.06,0000 0000 0000 0000 000000
2016-12-28 06:27:58,0.33,0.37,0.00,18.16,22.20,25.99,14.85,47.32,1017.61,2047.80,3508.85,3046.25,3459.40,600.24,606.78,1.11,0000 0000 0000 0000 000000
2016-12-28 06:32:59,0.35,0.39,0.00,18.18,22.22,26.01,14.81,47.38,1017.71,2047.77,3500.76,3040.84,3453.43,600.38,606.90,1.16,0000 0000 0000 0000 000000
2016-12-28 06:38:00,0.38,0.41,0.00,18.20,22.23,26.03,14.79,47.41,1017.83,2047.50,3491.72,3034.85,3446.72,599.77,606.37,1.21,0000 0000 0000 0000 000000
2016-12-28 06:43:01,0.36,0.43,0.00,18.21,22.24,26.02,14.81,47.42,1018.00,2047.33,3483.25,3029.28,3440.32,599.96,606.62,1.26,0000 0000 0000 0000 000000
2016-12-28 06:48:03,0.33,0.45,0.00,18.22,22.25,26.05,14.80,47.48,1018.05,2047.17,3475.35,3023.99,3434.30,599.84,606.61,1.31,0000 0000 0000 0000 000000
2016-12-28 06:53:04,0.36,0.46,0.00,18.21,22.27,26.04,14.79,47.43,1017.97,2047.05,3467.27,3018.56,3428.12,600.41,607.17,1.36,0000 0000 0000 0000 000000
2016-12-28 06:58:05,0.36,0.48,0.00,18.23,22.27,26.09,14.85,47.54,1017.97,2047.02,3459.02,3013.09,3421.99,600.04,606.67,1.41,0000 0000 0000 0000 000000
2016-12-28 07:03:06,0.36,0.50,0.00,18.25,22.29,26.07,14.83,47.52,1018.01,2047.00,3450.99,3007.72,3415.80,600.10,606.65,1.46,0000 0000 0000 0000 000000
2016-12-28 07:08:07,0.37,0.52,0.00,18.25,22.29,26.09,14.82,47.50,1018.07,2047.00,3442.67,3002.34,3409.63,600.09,606.71,1.51,0000 0000 0000 0000 000000
2016-12-28 07:13:09,0.37,0.54,0.00,18.28,22.30,26.07,14.79,47.48,1018.07,2047.00,3434.35,2996.79,3403.42,599.86,606.50,1.56,0000 0000 0000 0000 000000
2016-12-28 07:18:10,0.42,0.56,0.00,18.28,22.32,26.11,14.84,47.36,1018.08,2047.00,3425.43,2990.87,3396.59,599.96,606.51,1.61,0000 0000 0000 0000 000000
2016-12-28 07:23:11,0.42,0.58,0.00,18.27,22.32,26.13,14.92,47.37,1018.08,2047.00,3416.00,2984.76,3389.91,600.30,606.89,1.66,0000 0000 0000 0000 000000
2016-12-28 07:28:13,0.42,0.60,0.00,18.28,22.33,26.11,14.84,47.48,1018.07,2047.00,3406.66,2978.60,3383.04,599.95,606.63,1.71,0000 0000 0000 0000 000000
2016-12-28 07:33:14,0.42,0.62,0.00,18.28,22.34,26.13,14.81,47.44,1018.03,2047.00,3397.45,2972.51,3376.29,600.18,606.65,1.76,0000 0000 0000 0000 000000
2016-12-28 07:38:15,0.41,0.64,0.00,18.28,22.34,26.14,14.86,47.59,1017.97,2047.00,3388.55,2966.59,3369.67,600.12,606.61,1.81,0000 0000 0000 0000 000000
2016-12-28 07:43:17,0.39,0.66,0.00,18.28,22.35,26.13,14.78,47.48,1017.93,2047.00,3379.68,2960.73,3363.14,599.51,606.02,1.86,0000 0000 0000 0000 000000
2016-12-28 07:48:18,0.34,0.68,0.00,18.29,22.37,26.16,14.84,47.52,1018.06,2047.00,3372.28,2955.67,3357.30,600.34,606.91,1.91,0000 0000 0000 0000 000000
2016-12-28 07:53:19,0.38,0.70,0.00,18.30,22.37,26.17,14.81,47.42,1018.07,2047.00,3364.71,2950.50,3351.32,599.70,606.25,1.96,0000 0000 0000 0000 000000
2016-12-28 07:58:21,0.37,0.72,0.00,18.32,22.38,26.18,14.78,47.27,1018.07,2047.00,3356.54,2945.02,3344.90,599.94,606.40,2.01,0000 0000 0000 0000 000000
2016-12-28 08:03:22,0.36,0.74,0.00,18.32,22.39,26.21,14.83,47.20,1018.08,2046.98,3348.59,2939.78,3338.90,599.98,606.42,2.06,0000 0000 0000 0000 000000
2016-12-28 08:08:23,0.31,0.75,0.00,18.33,22.40,26.21,14.83,47.32,1018.05,2046.98,3341.82,2935.20,3333.77,600.13,606.58,2.11,0000 0000 0000 0000 000000
2016-12-28 08:13:24,0.36,0.77,0.00,18.31,22.41,26.19,14.75,47.30,1017.93,2046.97,3334.33,2930.20,3328.24,599.77,606.16,2.16,0000 0000 0000 0000 000000
2016-12-28 08:18:25,0.38,0.79,0.00,18.32,22.42,26.21,14.84,47.38,1017.77,2046.94,3326.00,2924.67,3322.16,600.23,606.52,2.21,0000 0000 0000 0000 000000
2016-12-28 08:23:26,0.40,0.81,0.00,18.32,22.42,26.22,14.74,47.41,1017.87,2046.95,3317.75,2919.12,3315.93,600.00,606.35,2.26,0000 0000 0000 0000 000000
2016-12-28 08:28:28,0.42,0.83,0.00,18.34,22.42,26.19,14.78,47.55,1017.94,2046.90,3308.66,2913.12,3309.26,599.85,606.20,2.31,0000 0000 0000 0000 000000
2016-12-28 08:33:29,0.45,0.85,0.00,18.34,22.42,26.18,14.83,47.45,1017.99,2046.92,3299.34,2906.95,3302.43,600.10,606.42,2.36,0000 0000 0000 0000 000000
2016-12-28 08:38:31,0.46,0.88,0.00,18.36,22.43,26.21,14.75,47.41,1017.92,2046.93,3289.84,2900.63,3295.23,599.85,606.20,2.41,0000 0000 0000 0000 000000
2016-12-28 08:43:32,0.43,0.90,0.00,18.36,22.44,26.22,14.80,47.28,1017.69,2046.65,3279.94,2894.10,3287.78,600.00,606.18,2.46,0000 0000 0000 0000 000000
2016-12-28 08:48:33,0.43,0.92,0.00,18.36,22.44,26.21,14.68,47.13,1017.65,2046.55,3270.68,2887.88,3280.74,599.89,606.03,2.52,0000 0000 0000 0000 000000
2016-12-28 08:53:35,0.37,0.94,0.00,18.38,22.44,26.21,14.81,47.38,1017.62,2046.17,3262.26,2882.23,3274.48,599.90,605.98,2.57,0000 0000 0000 0000 000000
2016-12-28 08:58:36,0.45,0.96,0.00,18.39,22.44,26.21,14.84,47.45,1017.59,2046.13,3253.17,2876.39,3267.89,600.10,606.18,2.62,0000 0000 0000 0000 000000
2016-12-28 09:03:38,0.44,0.98,0.00,18.41,22.45,26.22,14.79,47.45,1017.60,2046.12,3243.34,2870.02,3260.88,599.68,605.63,2.67,0000 0000 0000 0000 000000
2016-12-28 09:08:39,0.37,1.00,0.00,18.40,22.45,26.22,14.78,47.43,1017.60,2046.09,3235.36,2864.69,3254.89,600.09,605.99,2.72,0000 0000 0000 0000 000000
2016-12-28 09:13:40,0.36,1.02,0.00,18.39,22.47,26.24,14.81,47.52,1017.59,2046.07,3227.95,2859.75,3249.34,600.14,606.18,2.77,0000 0000 0000 0000 000000
2016-12-28 09:18:41,0.40,1.04,0.00,18.40,22.47,26.26,14.76,47.52,1017.59,2046.07,3219.78,2854.39,3243.37,599.81,605.83,2.82,0000 0000 0000 0000 000000
2016-12-28 09:23:42,0.42,1.06,0.00,18.41,22.47,26.23,14.78,47.54,1017.59,2046.04,3211.14,2848.64,3236.90,599.96,605.98,2.87,0000 0000 0000 0000 000000
2016-12-28 09:28:44,0.45,1.09,0.00,18.41,22.47,26.23,14.80,47.55,1017.63,2046.02,3201.92,2842.63,3230.13,600.02,606.01,2.92,0000 0000 0000 0000 000000
2016-12-28 09:33:45,0.52,1.11,0.00,18.40,22.48,26.26,14.76,47.61,1017.81,2046.02,3191.48,2835.88,3222.58,599.92,606.12,2.97,0000 0000 0000 0000 000000
2016-12-28 09:38:46,0.54,1.14,0.00,18.42,22.49,26.21,14.80,47.57,1017.89,2046.01,3180.30,2828.71,3214.47,600.13,606.28,3.02,0000 0000 0000 0000 000000
2016-12-28 09:43:47,0.54,1.17,0.00,18.43,22.49,26.27,14.77,47.61,1017.87,2046.00,3169.20,2821.63,3206.53,599.91,606.11,3.07,0000 0000 0000 0000 000000
2016-12-28 09:48:48,0.57,1.19,0.00,18.44,22.50,26.27,14.75,47.58,1017.93,2046.00,3157.45,2814.30,3198.29,600.02,606.14,3.12,0000 0000 0000 0000 000000
2016-12-28 09:53:49,0.52,1.22,0.00,18.45,22.52,26.28,14.84,47.61,1017.87,2046.00,3146.45,2807.26,3190.31,599.99,606.09,3.17,0000 0000 0000 0000 000000
2016-12-28 09:58:51,0.47,1.24,0.37,18.45,22.52,26.30,14.91,47.46,1017.82,2046.00,3136.91,2801.08,3183.35,600.06,606.13,3.22,0000 0000 0000 0000 000000
2016-12-28 10:03:52,0.51,1.27,1.00,18.45,22.53,26.32,14.81,47.59,1017.75,2046.00,3126.89,2794.57,3176.15,600.01,605.96,3.27,0000 0000 0000 0000 000000
2016-12-28 10:08:53,0.49,1.30,1.00,18.47,22.54,26.29,14.78,47.45,1017.74,2045.99,3116.88,2788.04,3168.68,599.96,605.88,3.32,0000 0000 0000 0000 000000
2016-12-28 10:13:54,0.48,1.32,1.00,18.45,22.54,26.33,14.89,47.44,1017.71,2045.98,3107.26,2781.81,3161.61,599.70,605.69,3.37,0000 0000 0000 0000 000000
2016-12-28 10:18:56,0.48,1.35,1.00,18.47,22.56,26.30,14.85,47.45,1017.75,2045.97,3097.84,2775.56,3154.59,599.96,605.93,3.42,0000 0000 0000 0000 000000
2016-12-28 10:23:57,0.53,1.37,1.00,18.46,22.57,26.33,14.73,47.38,1017.66,2045.95,3087.54,2768.88,3147.15,599.74,605.69,3.47,0000 0000 0000 0000 000000
2016-12-28 10:28:58,0.52,1.40,1.00,18.47,22.57,26.34,14.79,47.39,1017.60,2045.88,3077.07,2762.07,3139.58,600.09,605.68,3.52,0000 0000 0000 0000 000000
2016-12-28 10:33:59,0.49,1.42,1.00,18.47,22.57,26.32,14.75,47.37,1017.60,2045.82,3067.18,2755.54,3132.42,599.94,605.83,3.57,0000 0000 0000 0000 000000
2016-12-28 10:39:01,0.42,1.45,1.00,18.48,22.59,26.31,14.75,47.30,1017.73,2045.86,3058.64,2750.09,3126.15,599.73,605.66,3.62,0000 0000 0000 0000 000000
2016-12-28 10:44:02,0.36,1.47,1.00,18.47,22.59,26.32,14.81,47.42,1017.83,2045.85,3051.59,2745.39,3120.69,600.22,606.23,3.67,0000 0000 0000 0000 000000
2016-12-28 10:49:03,0.48,1.49,1.00,18.47,22.59,26.33,14.84,47.41,1017.98,2045.62,3042.77,2739.47,3114.09,600.13,606.18,3.72,0000 0000 0000 0000 000000
2016-12-28 10:54:04,0.44,1.51,1.00,18.48,22.59,26.32,14.74,47.43,1017.82,2045.59,3033.48,2733.41,3107.31,599.80,605.85,3.77,0000 0000 0000 0000 000000
2016-12-28 10:59:06,0.32,1.53,0.57,18.49,22.60,26.33,14.81,47.42,1017.62,2045.32,3026.75,2728.89,3102.16,600.14,606.08,3.82,0000 0000 0000 0000 000000
2016-12-28 11:04:07,0.50,1.55,0.00,18.49,22.62,26.32,14.78,47.53,1017.61,2045.09,3017.90,2723.02,3095.59,600.26,605.97,3.87,0000 0000 0000 0000 000000
2016-12-28 11:09:09,0.55,1.58,0.00,18.51,22.62,26.32,14.81,47.50,1017.63,2045.07,3007.52,2716.10,3087.91,600.18,605.89,3.92,0000 0000 0000 0000 000000
2016-12-28 11:14:10,0.51,1.60,0.00,18.50,22.62,26.36,14.77,47.48,1017.64,2045.04,2997.63,2709.49,3080.48,599.86,605.60,3.97,0000 0000 0000 0000 000000
2016-12-28 11:19:11,0.49,1.63,0.00,18.50,22.62,26.37,14.76,47.52,1017.63,2045.01,2988.61,2703.40,3073.53,599.95,605.78,4.02,0000 0000 0000 0000 000000
2016-12-28 11:24:12,0.44,1.65,0.00,18.50,22.64,26.37,14.85,47.58,1017.60,2045.01,2980.23,2697.75,3067.12,600.26,606.09,4.07,0000 0000 0000 0000 000000
2016-12-28 11:29:13,0.42,1.67,0.00,18.49,22.64,26.41,14.81,47.49,1017.59,2045.00,2972.27,2692.52,3061.27,600.14,605.92,4.12,0000 0000 0000 0000 000000
2016-12-28 11:34:15,0.43,1.70,0.00,18.50,22.64,26.39,14.79,47.60,1017.58,2045.00,2964.32,2687.33,3055.39,599.79,605.68,4.17,0000 0000 0000 0000 000000
2016-12-28 11:39:16,0.51,1.72,0.00,18.49,22.64,26.38,14.79,47.60,1017.56,2045.00,2955.08,2681.34,3048.69,599.91,605.72,4.22,0000 0000 0000 0000 000000
2016-12-28 11:44:17,0.53,1.75,0.00,18.50,22.64,26.38,14.76,47.57,1017.59,2045.00,2945.18,2674.88,3041.53,599.90,605.72,4.27,0000 0000 0000 0000 000000
2016-12-28 11:49:19,0.53,1.77,0.00,18.50,22.64,26.37,14.71,47.52,1017.57,2045.00,2935.47,2668.42,3034.20,599.75,605.41,4.32,0000 0000 0000 0000 000000
2016-12-28 11:54:20,0.54,1.80,0.00,18.50,22.65,26.37,14.77,47.48,1017.57,2044.99,2925.68,2661.97,3026.93,600.30,606.06,4.37,0000 0000 0000 0000 000000
2016-12-28 11:59:21,0.55,1.83,0.47,18.50,22.64,26.35,14.84,47.67,1017.45,2044.98,2915.57,2655.31,3019.52,600.15,605.88,4.42,0000 0000 0000 0000 000000
2016-12-28 12:04:22,0.56,1.86,1.00,18.51,22.65,26.34,14.78,47.52,1017.30,2044.99,2905.37,2648.61,3012.14,599.91,605.57,4.47,0000 0000 0000 0000 000000
2016-12-28 12:09:24,0.53,1.88,1.00,18.51,22.65,26.38,14.75,47.58,1017.13,2044.97,2895.39,2642.07,3005.03,600.12,605.68,4.52,0000 0000 0000 0000 000000
2016-12-28 12:14:25,0.52,1.91,1.00,18.52,22.65,26.36,14.80,47.61,1017.11,2044.97,2886.02,2635.91,2998.18,600.06,605.57,4.57,0000 0000 0000 0000 000000
2016-12-28 12:19:26,0.46,1.94,1.00,18.53,22.65,26.38,14.88,47.67,1017.11,2044.98,2877.75,2630.26,2991.75,600.14,605.52,4.62,0000 0000 0000 0000 000000
2016-12-28 12:24:28,0.39,1.96,1.00,18.53,22.66,26.36,14.76,47.68,1017.11,2044.97,2870.60,2625.43,2986.25,599.62,605.07,4.67,0000 0000 0000 0000 000000
2016-12-28 12:29:29,0.42,1.98,0.50,18.52,22.67,26.39,14.85,47.67,1017.11,2044.93,2863.27,2620.75,2980.86,600.22,605.52,4.72,0000 0000 0000 0000 000000
2016-12-28 12:34:30,0.42,2.00,0.00,18.54,22.67,26.35,14.83,47.53,1017.11,2044.93,2855.77,2615.78,2975.27,600.05,605.42,4.77,0000 0000 0000 0000 000000
2016-12-28 12:39:31,0.39,2.02,0.00,18.53,22.67,26.36,14.79,47.65,1017.11,2044.97,2848.82,2611.07,2969.91,599.91,605.40,4.82,0000 0000 0000 0000 000000
2016-12-28 12:44:33,0.35,2.04,0.00,18.53,22.67,26.39,14.83,47.68,1017.11,2044.95,2842.65,2606.79,2964.86,599.89,605.37,4.87,0000 0000 0000 0000 000000
2016-12-28 12:49:34,0.30,2.05,0.00,18.53,22.67,26.44,14.76,47.61,1017.11,2044.84,2837.25,2603.04,2960.68,599.99,605.46,4.93,0000 0000 0000 0000 000000
2016-12-28 12:54:35,0.32,2.07,0.00,18.54,22.67,26.45,14.80,47.58,1017.11,2044.65,2831.52,2599.10,2956.27,600.05,605.49,4.98,0000 0000 0000 0000 000000
2016-12-28 12:59:37,0.34,2.09,0.00,18.54,22.69,26.44,14.84,47.68,1017.11,2044.48,2825.35,2594.91,2951.58,600.28,605.67,5.03,0000 0000 0000 0000 000000
2016-12-28 13:04:38,0.33,2.10,0.00,18.54,22.69,26.38,14.79,47.67,1017.11,2044.29,2819.71,2590.92,2946.99,599.78,605.23,5.08,0000 0000 0000 0000 000000